Flight Track Log - Related Links

Times and Time Zones

All times are in EDT time to prevent confusion due to time zone crossing. See the N610GH flight status page for this flight to view local times or setup timezone preferences in your user account.


Time Position Orientation Groundspeed Altitude Reporting Facility
EDT Latitude Longitude Course Direction KTS MPH feet Rate Location/Type
Mon 04:45:14 PM 38.8333 -94.7167 170° South 129 148 2,400  Level Kansas City TRACON
Mon 04:45:41 PM 38.8183 -94.7133 170° South 107 123 3,100 1,500 Climbing Kansas City Center
Mon 04:46:42 PM 38.7953 -94.6894 141° Southeast 112 129 4,600 1,610 Climbing Kansas City Center
Mon 04:47:44 PM 38.7650 -94.6608 144° Southeast 118 136 6,400 1,584 Climbing Kansas City Center
Mon 04:48:47 PM 38.7358 -94.6356 146° Southeast 134 154 7,900 1,694 Climbing Kansas City Center
Mon 04:49:48 PM 38.6972 -94.6139 156° South 138 159 9,900 1,820 Climbing Kansas City Center
Mon 04:50:49 PM 38.6614 -94.5883 151° Southeast 150 173 11,600 1,680 Climbing Kansas City Center
Mon 04:51:53 PM 38.6203 -94.5758 167° South 158 182 13,400 1,680 Climbing Kansas City Center
Mon 04:52:54 PM 38.5683 -94.5650 171° South 169 194 15,100 1,623 Climbing Kansas City Center
Mon 04:53:55 PM 38.5239 -94.5506 166° South 173 199 16,700 1,008 Climbing Kansas City Center
Mon 04:54:59 PM 38.4583 -94.5406 173° South 225 259 17,200 143 Climbing Kansas City Center
Mon 04:56:01 PM 38.3844 -94.5344 176° South 277 319 17,000 -98 Descending Kansas City Center
Mon 04:57:02 PM 38.2922 -94.5281 177° South 295 339 17,000  Level Kansas City Center
Mon 04:58:06 PM 38.2131 -94.5219 177° South 296 341 17,000 -339 Level Kansas City Center
Mon 04:59:06 PM 38.1356 -94.5711 207° Southwest 287 330 16,300 -1,033 Descending Kansas City Center
Mon 05:00:08 PM 38.1239 -94.6611 261° West 285 328 14,900 -1,476 Descending Kansas City Center
Mon 05:01:12 PM 38.1972 -94.6936 341° North 266 306 13,200 -1,536 Descending Kansas City Center
Mon 05:02:13 PM 38.2694 -94.7000 356° North 270 311 11,700 -1,537 Descending Kansas City Center
Mon 05:03:13 PM 38.3403 -94.7042 357° North 267 307 10,100 -1,854 Descending Kansas City Center
Mon 05:04:16 PM 38.4206 -94.7106 356° North 260 299 7,900 -1,790 Descending Kansas City Center
Mon 05:05:17 PM 38.4883 -94.7147 357° North 253 291 6,400 -912 Descending Kansas City Center
Mon 05:06:21 PM 38.5569 -94.7172 358° North 219 252 6,000 -677 Descending Kansas City Center
Mon 05:07:21 PM 38.6081 -94.7206 357° North 195 224 5,000 -968 Descending Kansas City Center
Mon 05:08:25 PM 38.6639 -94.7247 357° North 176 203 4,000 -484 Descending Kansas City Center
Mon 05:09:25 PM 38.7075 -94.7247 360° North 170 196 4,000 -629 Level Kansas City Center
Mon 05:10:29 PM 38.7683 -94.7278 358° North 194 223 2,700 -968 Descending Kansas City Center
Mon 05:11:29 PM 38.8044 -94.7361 350° North 137 158 2,000 -484 Descending Kansas City Center
Mon 05:12:33 PM 38.8336 -94.7383 357° North 119 137 1,700 -281 Descending Kansas City Center
Mon 05:14:00 PM 38.8476 -94.7376 180° South  Level Estimated

Login

Don't have an account? Register now (free) for customized features, flight alerts, and more!